Showing default

USA 142, 25669

Orbit data source: Space-Track

USA 142, 25669 is a payload satellite owned by USAF SMC (US) in HEO that was launched on Fri, 09 Apr 1999 UTC via a TITAN 402B/IUS launch vehicle from the Air Force Eastern Test Range (AFETR). Payload-class satellites include a variety of spacecraft equipped with specific instruments for various scientific and technological missions. These include communications satellites like Starlink; space stations such as the ISS; scientific satellites like the Hubble; Earth observation satellites from companies like Planet Labs, Umbra, and HawkEye 360; GPS; miniature CubeSats for education and research; and military/defense satellites.

Loading next visibility...
Identifier
25669, 1999-017A
Orbit
HEO
Country
Flag of USUS
Related business
Manufacturer
TRW
Mission
Non-operational Defense Early Warn
Bus & Motor
DSP B18, MRE-4
Mass
~2,360 kg wet, ~2,300 kg dry
Launch date (UTC)
1999-04-09 (27 years ago)
Launch vehicle
TITAN 402B/IUS
Launch site
Air Force Eastern Test Range (AFETR)
Object type
Payload
Rocket body
Debris
Shape & HBR
Box + Cyl + 1 Pan, 5.8 m
Radar Cross Section
39.779 m², Large (>1 m²)

Expand to show TLE details & history
Last TLE update: 2 days ago

TLE from 2 days ago
0 USA 142
1 25669U 99017A   26171.32935558 -.00000046  00000-0  45184-3 0  9997
2 25669  29.0097  64.0043 7099583 144.8184 294.4248  2.33045039 18365
Epoch: 2026-06-20T07:54Z
TLE epoch observation values (Epoch: 2026-06-20T07:54:16.322Z)
Latitude
0.00004°
Longitude
36.8692°
Altitude
22,047.652 km
Speed
3.385 km/s
True Right ascension
04h 15m 55s
True Declination
0° 00' 00"
Sunlit
Object was in daylight at epoch
Visualization orbit readout
Latitude
Unknown
Longitude
Unknown
Altitude
Unknown
Speed
Unknown
Apparent Right ascension
Unknown
Apparent Declination
Unknown
Sunlit
N/A
Visualization observer readout
Local Sidereal Time
23:08:24
Azimuth
Unknown
Elevation
Unknown
Doppler factor
Unknown
Orbital elements
Apogee altitude
34,720.028 km
Perigee altitude
592.899 km
Semi-major axis
24,034.601 km
Eccentricity
0.70996
Inclination
29.0097°
RAAN
64.0043°
Arg. of periapsis
144.8184°
True anomaly
215.14245°
Mean anomaly
294.4248°
Eccentric anomaly
255.11262°
Mean motion
0.58249 °/min
Orbital period
618.04 mins
BSTAR
0.00045184
Loading maneuver chart data...
Computing Atmospheric mass density...
Loading historical data...
Loading historical data...
Loading historical data...
Loading historical data...
Loading historical data...
Loading historical data...
Loading historical data...

Documentation

Showing up to 5 results
|